Weather History for KGLS - February, 2013

Change the Weather History Date:

Monday, February 11, 2013

  Actual Average Record
Temperature  
Mean Temperature 62 °F 57 °F  
Max Temperature 66 °F 64 °F 77 °F (1999)
Min Temperature 57 °F 50 °F 24 °F (1981)
Degree Days  
Heating Degree Days 3 8  
Month to date heating degree days 12 98  
Since 1 July heating degree days 534 767  
Cooling Degree Days 0 0  
Month to date cooling degree days 7 0  
Year to date cooling degree days 31 5  
Growing Degree Days 12 (Base 50)    
Moisture  
Dew Point 57 °F    
Average Humidity 91    
Maximum Humidity 100    
Minimum Humidity 81    
Precipitation  
Precipitation 0.69 in 0.09 in 1.34 in (1992)
Month to date precipitation 1.80 0.98  
Year to date precipitation 8.98 5.18  
Snow  
Snow 0.00 in - 0.50 in (1885)
Month to date snowfall 0.0  
Since 1 July snowfall 0.0  
Snow Depth 0.00 in    
Sea Level Pressure  
Sea Level Pressure 29.99 in    
Wind  
Wind Speed 18 mph (NNE)    
Max Wind Speed 28 mph    
Max Gust Speed 33 mph    
Visibility 7 miles    
Events Rain , Thunderstorm    
T = Trace of Precipitation, MM = Missing Value Source: NWS Daily Summary

Daily Weather History Graph

Daily Weather History Graph

Search for Another Location

Airport or City:

Trip Planner

Search our weather history database for the weather conditions in past years. The results will help you decide how hot, cold, wet, or windy it might be!

Date:

Astronomy

Feb. 11, 2013 Rise Set
Actual Time 7:01 AM CST 6:06 PM CST
Civil Twilight 6:37 AM CST 6:30 PM CST
Nautical Twilight 6:09 AM CST 6:58 PM CST
Astronomical Twilight 5:41 AM CST 7:26 PM CST
Moon 7:37 AM CST (2/11) 7:50 PM CST (2/11)
Length of Visible Light 11h 53m
Length of Day
11h 04m
Waxing Crescent, 3% of the Moon is Illuminated
Feb 11
Waxing Crescent
Feb 17
First Quarter
Feb 25
Full
Mar 4
Last Quarter
Mar 11
New

Hourly Weather History & Observations

Time (CST) Temp. Dew Point Humidity Pressure Visibility Wind Dir Wind Speed Gust Speed Precip Events Conditions
12:14 AM 64.4 °F 60.8 °F 88% 29.95 in 10.0 mi NNE 9.2 mph - N/A   Overcast
12:52 AM 66.0 °F 61.0 °F 84% 29.97 in 10.0 mi North 10.4 mph - N/A   Overcast
1:14 AM 66.2 °F 60.8 °F 83% 29.97 in 10.0 mi North 12.7 mph - N/A   Overcast
1:52 AM 66.0 °F 61.0 °F 84% 29.98 in 10.0 mi North 13.8 mph - N/A   Overcast
2:38 AM 64.4 °F 60.8 °F 88% 29.98 in 10.0 mi North 13.8 mph - 0.00 in Rain Light Rain
2:52 AM 64.9 °F 61.0 °F 87% 29.98 in 10.0 mi North 12.7 mph - 0.00 in Rain Light Rain
3:52 AM 64.9 °F 60.1 °F 84% 29.96 in 10.0 mi NNE 15.0 mph - 0.08 in   Overcast
4:35 AM 64.4 °F 59.0 °F 83% 29.96 in 10.0 mi North 12.7 mph 23.0 mph 0.00 in Rain , Thunderstorm Light Rain
4:52 AM 63.0 °F 57.9 °F 84% 29.98 in 5.0 mi North 17.3 mph 23.0 mph 0.10 in Rain , Thunderstorm Heavy Thunderstorms and Rain
5:09 AM 60.8 °F 55.4 °F 82% 29.98 in 1.8 mi NNE 24.2 mph 29.9 mph 0.27 in Rain , Thunderstorm Heavy Thunderstorms and Rain
5:17 AM 60.8 °F 55.4 °F 82% 29.98 in 2.5 mi NNE 17.3 mph 29.9 mph 0.31 in Rain , Thunderstorm Heavy Thunderstorms and Rain
5:21 AM 60.8 °F 55.4 °F 82% 29.98 in 4.0 mi NE 16.1 mph - 0.33 in Rain Heavy Rain
5:25 AM 60.8 °F 55.4 °F 82% 29.99 in 4.0 mi NNE 15.0 mph - 0.37 in Rain , Thunderstorm Heavy Thunderstorms and Rain
5:49 AM 60.8 °F 55.4 °F 82% 30.00 in 8.0 mi North 23.0 mph 29.9 mph 0.47 in Rain , Thunderstorm Light Rain
5:52 AM 59.0 °F 55.0 °F 87% 30.00 in 8.0 mi NNE 21.9 mph 29.9 mph 0.47 in Rain , Thunderstorm Rain
6:01 AM 59.0 °F 53.6 °F 82% 30.01 in 10.0 mi North 26.5 mph 32.2 mph 0.00 in Rain Light Rain
6:52 AM 57.0 °F 52.0 °F 83% 30.02 in 10.0 mi NNE 21.9 mph - 0.00 in   Overcast
7:52 AM 57.9 °F 52.0 °F 81% 30.03 in 10.0 mi NE 23.0 mph 31.1 mph 0.00 in Rain Light Rain
8:52 AM 57.9 °F 53.1 °F 84% 30.04 in 9.0 mi NE 21.9 mph 28.8 mph 0.01 in Rain Light Rain
9:52 AM 60.1 °F 54.0 °F 80% 30.03 in 10.0 mi ENE 21.9 mph 31.1 mph 0.00 in   Overcast
10:52 AM 61.0 °F 55.0 °F 81% 30.03 in 10.0 mi NE 19.6 mph 27.6 mph N/A   Overcast
11:52 AM 62.1 °F 57.0 °F 84% 30.01 in 10.0 mi NE 18.4 mph 27.6 mph N/A   Overcast
12:52 PM 62.1 °F 57.0 °F 84% 30.00 in 10.0 mi NE 15.0 mph 25.3 mph N/A   Overcast
1:46 PM 60.8 °F 57.2 °F 88% 29.99 in 2.5 mi NE 17.3 mph 25.3 mph 0.01 in Rain Light Rain
1:52 PM 60.1 °F 57.0 °F 90% 29.99 in 2.0 mi NE 17.3 mph 25.3 mph 0.01 in Rain Rain
1:55 PM 60.8 °F 57.2 °F 88% 29.99 in 3.0 mi NE 17.3 mph - 0.01 in Rain Light Rain
2:42 PM 59.0 °F 57.2 °F 94% 29.97 in 2.0 mi NE 19.6 mph 24.2 mph 0.01 in Rain Light Rain
2:52 PM 59.0 °F 57.0 °F 93% 29.97 in 2.0 mi NE 19.6 mph - 0.01 in Rain Light Rain
3:52 PM 59.0 °F 57.0 °F 93% 29.96 in 2.0 mi NNE 15.0 mph - 0.00 in   Overcast
4:52 PM 57.9 °F 57.0 °F 97% 29.96 in 2.0 mi NNE 16.1 mph - 0.00 in   Overcast
5:52 PM 57.9 °F 57.0 °F 97% 29.96 in 2.0 mi NNE 18.4 mph - N/A   Overcast
5:59 PM 59.0 °F 57.2 °F 94% 29.96 in 4.0 mi NNE 17.3 mph - N/A   Overcast
6:52 PM 57.9 °F 55.9 °F 93% 29.96 in 5.0 mi NNE 18.4 mph 26.5 mph 0.00 in   Overcast
7:52 PM 57.9 °F 57.0 °F 97% 29.99 in 4.0 mi NNE 15.0 mph - 0.00 in Rain Light Rain
8:52 PM 59.0 °F 57.0 °F 93% 29.98 in 8.0 mi NE 16.1 mph 25.3 mph 0.00 in   Overcast
9:52 PM 59.0 °F 57.0 °F 93% 29.99 in 10.0 mi NE 19.6 mph 25.3 mph 0.00 in   Overcast
10:52 PM 59.0 °F 57.0 °F 93% 29.98 in 10.0 mi NE 17.3 mph 25.3 mph 0.01 in   Overcast
11:52 PM 60.1 °F 57.9 °F 93% 29.96 in 10.0 mi NE 17.3 mph 23.0 mph N/A   Overcast